| time (UTC) | temp F | wind direction | speed knots | gust knots | rain 1hr in | rain 24hr in | rain mn in | humidity % | barometer mb |
| 20260506211301 | 92 | 287 | 1.7 | 3.5 | 0.00 | 0.04 | 0.00 | 44 | 1012.5 |
| 20260506210801 | 92 | 0 | 1.7 | 3.5 | 0.00 | 0.04 | 0.00 | 44 | 1012.5 |
| 20260506210302 | 93 | 220 | 1.7 | 5.2 | 0.00 | 0.04 | 0.00 | 44 | 1012.5 |
| 20260506205301 | 92 | 0 | 1.7 | 7.8 | 0.00 | 0.04 | 0.00 | 43 | 1012.6 |
| 20260506203802 | 94 | 295 | 1.7 | 6.1 | 0.00 | 0.04 | 0.00 | 43 | 1012.7 |
| 20260506203301 | 93 | 0 | 0.9 | 6.1 | 0.00 | 0.04 | 0.00 | 42 | 1012.7 |
| 20260506202801 | 92 | 186 | 1.7 | 6.1 | 0.00 | 0.04 | 0.00 | 45 | 1012.7 |
| 20260506202301 | 91 | 219 | 1.7 | 4.3 | 0.00 | 0.04 | 0.00 | 45 | 1012.8 |
| 20260506201802 | 91 | 233 | 1.7 | 4.3 | 0.00 | 0.04 | 0.00 | 46 | 1012.8 |
| 20260506201301 | 91 | 157 | 1.7 | 4.3 | 0.00 | 0.04 | 0.00 | 47 | 1012.8 |
| 20260506200801 | 90 | 51 | 1.7 | 6.1 | 0.00 | 0.04 | 0.00 | 49 | 1012.9 |
| 20260506195801 | 91 | 96 | 1.7 | 7.0 | 0.00 | 0.04 | 0.00 | 48 | 1013.1 |
| 20260506195301 | 91 | 183 | 2.6 | 7.8 | 0.00 | 0.04 | 0.00 | 48 | 1013.1 |
| 20260506194801 | 90 | 225 | 2.6 | 7.8 | 0.00 | 0.04 | 0.00 | 50 | 1013.2 |
| 20260506194301 | 91 | 140 | 1.7 | 5.2 | 0.00 | 0.04 | 0.00 | 48 | 1013.3 |
| 20260506193801 | 91 | 0 | 1.7 | 4.3 | 0.00 | 0.04 | 0.00 | 48 | 1013.4 |
| 20260506192800 | 90 | 211 | 3.5 | 6.1 | 0.00 | 0.04 | 0.00 | 49 | 1013.6 |
| 20260506192305 | 90 | 70 | 1.7 | 5.2 | 0.00 | 0.04 | 0.00 | 51 | 1013.6 |
| 20260506191301 | 91 | 337 | 1.7 | 4.3 | 0.00 | 0.04 | 0.00 | 48 | 1013.8 |
| 20260506190801 | 90 | 218 | 1.7 | 5.2 | 0.00 | 0.04 | 0.00 | 52 | 1013.8 |
| 20260506190301 | 89 | 0 | 2.6 | 6.1 | 0.00 | 0.04 | 0.00 | 52 | 1013.8 |
| 20260506185802 | 90 | 134 | 2.6 | 7.0 | 0.00 | 0.04 | 0.00 | 50 | 1014.0 |
| 20260506185306 | 90 | 206 | 2.6 | 7.8 | 0.00 | 0.04 | 0.00 | 50 | 1014.0 |
| 20260506184302 | 90 | 0 | 1.7 | 7.0 | 0.00 | 0.04 | 0.00 | 51 | 1014.1 |
| 20260506183800 | 90 | 93 | 1.7 | 6.1 | 0.00 | 0.04 | 0.00 | 50 | 1014.2 |
| 20260506183301 | 90 | 280 | 2.6 | 6.1 | 0.00 | 0.04 | 0.00 | 50 | 1014.3 |
| 20260506182301 | 90 | 23 | 1.7 | 5.2 | 0.00 | 0.04 | 0.00 | 50 | 1014.3 |
| 20260506181802 | 89 | 176 | 1.7 | 5.2 | 0.00 | 0.04 | 0.00 | 52 | 1014.6 |
| 20260506181301 | 89 | 329 | 1.7 | 5.2 | 0.00 | 0.04 | 0.00 | 52 | 1014.5 |
| 20260506180801 | 89 | 309 | 1.7 | 5.2 | 0.00 | 0.04 | 0.00 | 50 | 1014.7 |
| 20260506180301 | 88 | 0 | 2.6 | 5.2 | 0.00 | 0.04 | 0.00 | 52 | 1014.7 |
| 20260506175802 | 88 | 140 | 2.6 | 5.2 | 0.00 | 0.04 | 0.00 | 55 | 1014.7 |
| 20260506175301 | 89 | 123 | 1.7 | 5.2 | 0.00 | 0.04 | 0.00 | 53 | 1014.8 |
| 20260506174802 | 88 | 52 | 1.7 | 5.2 | 0.00 | 0.04 | 0.00 | 52 | 1014.8 |
| 20260506174301 | 87 | 205 | 2.6 | 4.3 | 0.00 | 0.04 | 0.00 | 56 | 1014.9 |
| 20260506173802 | 87 | 117 | 1.7 | 4.3 | 0.00 | 0.04 | 0.00 | 55 | 1014.9 |
| 20260506173301 | 87 | 0 | 1.7 | 6.1 | 0.00 | 0.04 | 0.00 | 56 | 1015.0 |
| 20260506172801 | 87 | 212 | 1.7 | 6.1 | 0.00 | 0.04 | 0.00 | 57 | 1015.1 |
| 20260506172301 | 87 | 226 | 2.6 | 5.2 | 0.00 | 0.04 | 0.00 | 55 | 1015.2 |
| 20260506171300 | 86 | 141 | 1.7 | 7.0 | 0.00 | 0.04 | 0.00 | 57 | 1015.3 |
| 20260506170800 | 86 | 0 | 2.6 | 7.0 | 0.00 | 0.04 | 0.00 | 59 | 1015.4 |
| 20260506170301 | 86 | 223 | 1.7 | 4.3 | 0.00 | 0.04 | 0.00 | 58 | 1015.4 |
| 20260506165800 | 85 | 240 | 1.7 | 4.3 | 0.00 | 0.04 | 0.00 | 57 | 1015.5 |
| 20260506165306 | 85 | 187 | 1.7 | 4.3 | 0.00 | 0.04 | 0.00 | 59 | 1015.5 |
| 20260506164801 | 86 | 224 | 1.7 | 4.3 | 0.00 | 0.04 | 0.00 | 58 | 1015.6 |
| 20260506163801 | 86 | 200 | 1.7 | 4.3 | 0.00 | 0.04 | 0.00 | 59 | 1015.7 |
| 20260506163301 | 86 | 156 | 1.7 | 3.5 | 0.00 | 0.04 | 0.00 | 59 | 1015.8 |
| 20260506162801 | 85 | 197 | 1.7 | 5.2 | 0.00 | 0.04 | 0.00 | 60 | 1015.7 |
| 20260506162301 | 86 | 199 | 1.7 | 5.2 | 0.00 | 0.04 | 0.00 | 59 | 1015.8 |
| 20260506161301 | 84 | 137 | 2.6 | 7.0 | 0.00 | 0.04 | 0.00 | 61 | 1015.9 |
| 20260506160801 | 84 | 119 | 2.6 | 7.0 | 0.00 | 0.04 | 0.00 | 64 | 1015.9 |
| 20260506160301 | 84 | 170 | 2.6 | 4.3 | 0.00 | 0.04 | 0.00 | 62 | 1016.0 |
| 20260506155804 | 84 | 193 | 2.6 | 3.5 | 0.00 | 0.04 | 0.00 | 61 | 1016.0 |
| 20260506155305 | 84 | 162 | 2.6 | 4.3 | 0.00 | 0.04 | 0.00 | 61 | 1015.9 |
| 20260506154801 | 84 | 163 | 2.6 | 4.3 | 0.00 | 0.04 | 0.00 | 62 | 1016.0 |
| 20260506154301 | 83 | 236 | 1.7 | 4.3 | 0.00 | 0.04 | 0.00 | 62 | 1015.9 |
| 20260506153301 | 83 | 220 | 1.7 | 5.2 | 0.00 | 0.04 | 0.00 | 64 | 1016.0 |
| 20260506152801 | 83 | 215 | 1.7 | 5.2 | 0.00 | 0.04 | 0.00 | 62 | 1016.1 |
| 20260506152301 | 83 | 121 | 1.7 | 5.2 | 0.00 | 0.04 | 0.00 | 63 | 1016.0 |
| 20260506151801 | 83 | 163 | 1.7 | 5.2 | 0.00 | 0.04 | 0.00 | 64 | 1016.0 |
| 20260506151301 | 83 | 150 | 1.7 | 5.2 | 0.00 | 0.04 | 0.00 | 63 | 1015.9 |
| 20260506150801 | 82 | 0 | 1.7 | 5.2 | 0.00 | 0.04 | 0.00 | 65 | 1015.9 |
| 20260506150304 | 82 | 311 | 1.7 | 5.2 | 0.00 | 0.04 | 0.00 | 65 | 1015.9 |
| 20260506145800 | 81 | 223 | 1.7 | 3.5 | 0.00 | 0.04 | 0.00 | 66 | 1015.9 |
| 20260506145305 | 80 | 146 | 1.7 | 4.3 | 0.00 | 0.04 | 0.00 | 66 | 1015.8 |
| 20260506144802 | 80 | 195 | 2.6 | 4.3 | 0.00 | 0.04 | 0.00 | 67 | 1015.8 |
| 20260506144302 | 80 | 200 | 2.6 | 4.3 | 0.00 | 0.04 | 0.00 | 69 | 1015.7 |
| 20260506143802 | 80 | 192 | 2.6 | 5.2 | 0.00 | 0.04 | 0.00 | 68 | 1015.7 |
| 20260506143301 | 80 | 172 | 1.7 | 5.2 | 0.00 | 0.04 | 0.00 | 67 | 1015.6 |
| 20260506142801 | 79 | 152 | 1.7 | 3.5 | 0.00 | 0.04 | 0.00 | 69 | 1015.7 |
| 20260506142301 | 79 | 218 | 1.7 | 3.5 | 0.00 | 0.04 | 0.00 | 69 | 1015.6 |
| 20260506141302 | 78 | 0 | 1.7 | 4.3 | 0.00 | 0.04 | 0.00 | 71 | 1015.7 |
| 20260506140801 | 78 | 201 | 1.7 | 3.5 | 0.00 | 0.04 | 0.00 | 71 | 1015.7 |
| 20260506140302 | 78 | 0 | 2.6 | 8.7 | 0.00 | 0.04 | 0.00 | 71 | 1015.8 |
| 20260506135801 | 77 | 108 | 2.6 | 8.7 | 0.00 | 0.04 | 0.00 | 72 | 1015.7 |
| 20260506135305 | 77 | 0 | 2.6 | 5.2 | 0.00 | 0.04 | 0.00 | 74 | 1015.7 |
| 20260506134801 | 77 | 160 | 1.7 | 5.2 | 0.00 | 0.04 | 0.00 | 75 | 1015.7 |
| 20260506134305 | 76 | 128 | 1.7 | 5.2 | 0.00 | 0.04 | 0.00 | 76 | 1015.8 |
| 20260506133800 | 76 | 222 | 1.7 | 5.2 | 0.00 | 0.04 | 0.00 | 76 | 1015.8 |
| 20260506133301 | 76 | 0 | 1.7 | 5.2 | 0.00 | 0.04 | 0.00 | 76 | 1015.8 |
| 20260506132801 | 76 | 156 | 1.7 | 5.2 | 0.00 | 0.04 | 0.00 | 77 | 1015.9 |
| 20260506132301 | 74 | 182 | 1.7 | 4.3 | 0.00 | 0.04 | 0.00 | 78 | 1015.9 |
| 20260506131802 | 74 | 201 | 1.7 | 3.5 | 0.00 | 0.04 | 0.00 | 78 | 1015.9 |
| 20260506131302 | 74 | 223 | 1.7 | 6.1 | 0.00 | 0.04 | 0.00 | 79 | 1015.9 |
| 20260506130803 | 73 | 205 | 1.7 | 6.1 | 0.00 | 0.04 | 0.00 | 80 | 1015.9 |
| 20260506130301 | 72 | 187 | 0.9 | 6.1 | 0.00 | 0.04 | 0.00 | 81 | 1015.7 |
| 20260506125801 | 72 | 0 | 0.9 | 2.6 | 0.00 | 0.04 | 0.00 | 81 | 1015.8 |
| 20260506125301 | 71 | 200 | 0.9 | 3.5 | 0.00 | 0.04 | 0.00 | 82 | 1015.8 |
| 20260506124802 | 71 | 191 | 0.9 | 3.5 | 0.00 | 0.04 | 0.00 | 83 | 1015.7 |
| 20260506124301 | 71 | 0 | 0.9 | 2.6 | 0.00 | 0.04 | 0.00 | 82 | 1015.6 |
| 20260506123800 | 70 | 162 | 0.9 | 2.6 | 0.00 | 0.04 | 0.00 | 83 | 1015.6 |
| 20260506123301 | 69 | 0 | 0.0 | 2.6 | 0.00 | 0.04 | 0.00 | 84 | 1015.6 |
| 20260506121801 | 66 | 158 | 0.0 | 4.3 | 0.00 | 0.04 | 0.00 | 90 | 1015.3 |
| 20260506120301 | 64 | 0 | 0.0 | 0.0 | 0.00 | 0.04 | 0.00 | 95 | 1015.1 |
| 20260506115801 | 63 | 0 | 0.0 | 0.0 | 0.00 | 0.04 | 0.00 | 95 | 1015.1 |
| 20260506115300 | 62 | 0 | 0.0 | 0.0 | 0.00 | 0.04 | 0.00 | 96 | 1015.0 |
| 20260506114802 | 62 | 0 | 0.0 | 0.0 | 0.00 | 0.04 | 0.00 | 96 | 1015.0 |
| 20260506114302 | 61 | 0 | 0.0 | 0.0 | 0.00 | 0.04 | 0.00 | 96 | 1015.1 |
| 20260506113802 | 61 | 0 | 0.0 | 0.0 | 0.00 | 0.04 | 0.00 | 96 | 1015.1 |
| 20260506113302 | 60 | 0 | 0.0 | 0.0 | 0.00 | 0.04 | 0.00 | 96 | 1015.1 |
| 20260506112802 | 60 | 0 | 0.0 | 0.0 | 0.00 | 0.04 | 0.00 | 96 | 1015.1 |
| 20260506112302 | 59 | 0 | 0.0 | 0.0 | 0.00 | 0.04 | 0.00 | 96 | 1015.0 |
| 20260506111300 | 59 | 0 | 0.0 | 0.9 | 0.00 | 0.04 | 0.00 | 95 | 1015.0 |
| 20260506110802 | 59 | 0 | 0.0 | 0.9 | 0.00 | 0.04 | 0.00 | 95 | 1014.9 |
| 20260506110302 | 59 | 206 | 0.0 | 0.9 | 0.00 | 0.04 | 0.00 | 95 | 1014.9 |
| 20260506105806 | 59 | 0 | 0.0 | 0.0 | 0.00 | 0.04 | 0.00 | 95 | 1014.8 |
| 20260506104803 | 59 | 0 | 0.0 | 0.0 | 0.00 | 0.04 | 0.00 | 95 | 1014.7 |
| 20260506104301 | 59 | 0 | 0.0 | 0.0 | 0.00 | 0.04 | 0.00 | 95 | 1014.7 |
| 20260506103801 | 59 | 0 | 0.0 | 0.0 | 0.00 | 0.04 | 0.00 | 95 | 1014.6 |
| 20260506103302 | 60 | 0 | 0.0 | 0.9 | 0.00 | 0.04 | 0.00 | 95 | 1014.5 |
| 20260506102800 | 60 | 0 | 0.0 | 1.7 | 0.00 | 0.04 | 0.00 | 95 | 1014.5 |
| 20260506102305 | 60 | 293 | 0.0 | 1.7 | 0.00 | 0.04 | 0.00 | 95 | 1014.6 |
| 20260506101802 | 60 | 0 | 0.0 | 0.0 | 0.00 | 0.04 | 0.00 | 94 | 1014.5 |
| 20260506101302 | 60 | 0 | 0.0 | 0.0 | 0.00 | 0.04 | 0.00 | 94 | 1014.4 |
| 20260506100802 | 60 | 0 | 0.0 | 0.0 | 0.00 | 0.04 | 0.00 | 94 | 1014.4 |
| 20260506100302 | 60 | 0 | 0.0 | 0.0 | 0.00 | 0.04 | 0.00 | 94 | 1014.6 |
| 20260506095802 | 60 | 0 | 0.0 | 0.0 | 0.00 | 0.04 | 0.00 | 94 | 1014.5 |
| 20260506095301 | 60 | 0 | 0.0 | 0.0 | 0.00 | 0.04 | 0.00 | 94 | 1014.6 |
| 20260506094302 | 60 | 0 | 0.0 | 0.0 | 0.00 | 0.04 | 0.00 | 94 | 1014.7 |
| 20260506093802 | 60 | 0 | 0.0 | 0.0 | 0.00 | 0.04 | 0.00 | 94 | 1014.6 |
| 20260506093302 | 60 | 0 | 0.0 | 0.9 | 0.00 | 0.04 | 0.00 | 94 | 1014.7 |
| 20260506092802 | 60 | 0 | 0.0 | 0.9 | 0.00 | 0.04 | 0.00 | 94 | 1014.6 |
| 20260506092300 | 60 | 273 | 0.0 | 0.9 | 0.00 | 0.04 | 0.00 | 94 | 1014.6 |
| 20260506091803 | 60 | 0 | 0.0 | 0.0 | 0.00 | 0.04 | 0.00 | 93 | 1014.4 |
| 20260506090802 | 60 | 0 | 0.0 | 0.0 | 0.00 | 0.04 | 0.00 | 93 | 1014.1 |
| 20260506090306 | 60 | 0 | 0.0 | 0.0 | 0.00 | 0.04 | 0.00 | 93 | 1014.0 |
| 20260506085802 | 60 | 0 | 0.0 | 0.0 | 0.00 | 0.04 | 0.00 | 93 | 1014.1 |
| 20260506084803 | 60 | 0 | 0.0 | 0.0 | 0.00 | 0.04 | 0.00 | 93 | 1014.3 |
| 20260506084302 | 60 | 0 | 0.0 | 0.0 | 0.00 | 0.04 | 0.00 | 92 | 1014.3 |
| 20260506083302 | 61 | 256 | 0.0 | 0.9 | 0.00 | 0.04 | 0.00 | 92 | 1014.4 |
| 20260506082801 | 61 | 0 | 0.0 | 0.9 | 0.00 | 0.04 | 0.00 | 92 | 1014.3 |
| 20260506082304 | 61 | 24 | 0.0 | 0.9 | 0.00 | 0.04 | 0.00 | 92 | 1014.4 |
| 20260506081802 | 61 | 0 | 0.0 | 0.0 | 0.00 | 0.04 | 0.00 | 92 | 1014.3 |
| 20260506081302 | 61 | 0 | 0.0 | 0.0 | 0.00 | 0.04 | 0.00 | 92 | 1014.2 |
| 20260506080302 | 61 | 0 | 0.0 | 1.7 | 0.00 | 0.04 | 0.00 | 92 | 1014.3 |
| 20260506073301 | 60 | 0 | 0.0 | 0.0 | 0.00 | 0.04 | 0.00 | 93 | 1013.9 |
| 20260506072802 | 60 | 0 | 0.0 | 0.0 | 0.00 | 0.04 | 0.00 | 93 | 1013.9 |
| 20260506072305 | 60 | 0 | 0.0 | 0.0 | 0.00 | 0.04 | 0.00 | 93 | 1014.0 |
| 20260506071803 | 60 | 0 | 0.0 | 0.0 | 0.00 | 0.04 | 0.00 | 93 | 1014.1 |
| 20260506071302 | 60 | 0 | 0.0 | 0.0 | 0.00 | 0.04 | 0.00 | 93 | 1014.1 |
| 20260506070802 | 60 | 0 | 0.0 | 0.0 | 0.00 | 0.04 | 0.00 | 93 | 1014.1 |
| 20260506070302 | 60 | 0 | 0.0 | 0.0 | 0.00 | 0.04 | 0.00 | 93 | 1014.2 |
| 20260506062305 | 60 | 0 | 0.0 | 0.0 | 0.00 | 0.04 | 0.00 | 92 | 1014.8 |
| 20260506061801 | 60 | 0 | 0.0 | 0.0 | 0.00 | 0.04 | 0.00 | 92 | 1014.8 |
| 20260506061302 | 60 | 0 | 0.0 | 0.0 | 0.00 | 0.04 | 0.00 | 91 | 1014.8 |
| 20260506060801 | 60 | 0 | 0.0 | 0.0 | 0.00 | 0.04 | 0.00 | 91 | 1014.8 |
| 20260506060301 | 60 | 0 | 0.0 | 0.0 | 0.00 | 0.04 | 0.00 | 91 | 1014.9 |
| 20260506051301 | 61 | 0 | 0.0 | 0.9 | 0.00 | 0.04 | 0.00 | 90 | 1015.4 |
| 20260506050806 | 61 | 0 | 0.0 | 0.9 | 0.00 | 0.04 | 0.00 | 90 | 1015.3 |
| 20260506050301 | 61 | 26 | 0.0 | 0.9 | 0.00 | 0.04 | 0.00 | 90 | 1015.2 |
| 20260506044801 | 61 | 0 | 0.0 | 0.0 | 0.00 | 0.04 | 0.00 | 90 | 1015.4 |
| 20260506044305 | 62 | 0 | 0.0 | 0.0 | 0.00 | 0.04 | 0.00 | 89 | 1015.5 |
| 20260506043803 | 62 | 0 | 0.0 | 0.0 | 0.00 | 0.04 | 0.00 | 89 | 1015.6 |
| 20260506043301 | 62 | 0 | 0.0 | 0.9 | 0.00 | 0.04 | 0.00 | 89 | 1015.5 |
| 20260506042802 | 62 | 0 | 0.0 | 0.9 | 0.00 | 0.04 | 0.00 | 89 | 1015.4 |
| 20260506042300 | 62 | 34 | 0.9 | 1.7 | 0.00 | 0.04 | 0.00 | 89 | 1015.5 |
| 20260506041801 | 63 | 225 | 0.9 | 1.7 | 0.00 | 0.04 | 0.00 | 88 | 1015.5 |
| 20260506041302 | 63 | 227 | 0.0 | 1.7 | 0.00 | 0.04 | 0.00 | 88 | 1015.5 |
| 20260506040801 | 63 | 0 | 0.0 | 0.9 | 0.00 | 0.04 | 0.00 | 87 | 1015.5 |
| 20260506040301 | 63 | 0 | 0.0 | 1.7 | 0.00 | 0.04 | 0.00 | 87 | 1015.6 |
| 20260506035801 | 64 | 0 | 0.0 | 1.7 | 0.00 | 0.04 | 0.04 | 87 | 1015.6 |
| 20260506035300 | 64 | 215 | 0.0 | 1.7 | 0.00 | 0.04 | 0.04 | 86 | 1015.6 |
| 20260506034301 | 64 | 0 | 0.0 | 1.7 | 0.00 | 0.04 | 0.04 | 85 | 1015.5 |
| 20260506033300 | 65 | 217 | 0.0 | 0.9 | 0.00 | 0.04 | 0.04 | 83 | 1015.5 |
| 20260506032800 | 65 | 0 | 0.0 | 0.0 | 0.00 | 0.04 | 0.04 | 82 | 1015.5 |
| 20260506032301 | 65 | 0 | 0.0 | 0.9 | 0.00 | 0.04 | 0.04 | 82 | 1015.5 |
| 20260506031301 | 65 | 0 | 0.0 | 0.0 | 0.00 | 0.04 | 0.04 | 81 | 1015.4 |
| 20260506030800 | 66 | 0 | 0.0 | 0.0 | 0.00 | 0.04 | 0.04 | 81 | 1015.3 |
| 20260506025230 | 67 | 0 | 0.0 | 0.0 | 0.00 | 0.04 | 0.04 | 80 | 1015.1 |
| 20260506024731 | 67 | 0 | 0.0 | 0.0 | 0.00 | 0.04 | 0.04 | 79 | 1015.2 |
| 20260506024230 | 67 | 0 | 0.0 | 0.0 | 0.00 | 0.04 | 0.04 | 79 | 1015.3 |
| 20260506023230 | 68 | 219 | 1.7 | 4.3 | 0.00 | 0.04 | 0.04 | 77 | 1015.3 |
| 20260506022730 | 68 | 226 | 0.9 | 4.3 | 0.00 | 0.04 | 0.04 | 77 | 1015.3 |
| 20260506021221 | 69 | 0 | 0.0 | 1.7 | 0.00 | 0.04 | 0.04 | 75 | 1015.0 |
| 20260506020715 | 69 | 0 | 0.0 | 1.7 | 0.00 | 0.04 | 0.04 | 74 | 1014.8 |
| 20260506015715 | 70 | 203 | 0.9 | 1.7 | 0.00 | 0.04 | 0.04 | 73 | 1014.8 |
| 20260506015216 | 71 | 0 | 0.9 | 2.6 | 0.00 | 0.04 | 0.04 | 72 | 1014.8 |
| 20260506014707 | 71 | 211 | 1.7 | 3.5 | 0.00 | 0.04 | 0.04 | 71 | 1014.6 |
| 20260506013702 | 71 | 0 | 1.7 | 3.5 | 0.00 | 0.04 | 0.04 | 71 | 1014.5 |
| 20260506013202 | 71 | 141 | 1.7 | 3.5 | 0.00 | 0.04 | 0.04 | 70 | 1014.5 |
| 20260506012201 | 72 | 142 | 3.5 | 5.2 | 0.00 | 0.04 | 0.04 | 69 | 1014.4 |
| 20260506011701 | 72 | 141 | 3.5 | 6.1 | 0.00 | 0.04 | 0.04 | 69 | 1014.4 |
| 20260506011201 | 72 | 108 | 3.5 | 7.8 | 0.00 | 0.04 | 0.04 | 69 | 1014.4 |
| 20260506010701 | 72 | 130 | 4.3 | 7.8 | 0.00 | 0.04 | 0.04 | 68 | 1014.3 |
| 20260506010200 | 72 | 101 | 3.5 | 7.8 | 0.00 | 0.04 | 0.04 | 68 | 1014.3 |
| 20260506005200 | 72 | 162 | 2.6 | 7.0 | 0.00 | 0.04 | 0.04 | 67 | 1014.3 |
| 20260506003705 | 73 | 131 | 2.6 | 6.1 | 0.00 | 0.04 | 0.04 | 66 | 1014.2 |
| 20260506003201 | 73 | 119 | 2.6 | 6.1 | 0.00 | 0.04 | 0.04 | 66 | 1014.2 |
| 20260506002701 | 73 | 130 | 2.6 | 5.2 | 0.00 | 0.04 | 0.04 | 65 | 1014.1 |
| 20260506002201 | 73 | 85 | 3.5 | 7.0 | 0.00 | 0.04 | 0.04 | 64 | 1014.1 |
| 20260506001701 | 74 | 85 | 4.3 | 7.8 | 0.00 | 0.04 | 0.04 | 64 | 1014.1 |
| 20260506001200 | 74 | 67 | 4.3 | 7.8 | 0.00 | 0.04 | 0.04 | 63 | 1014.1 |
| 20260506000701 | 74 | 103 | 3.5 | 7.8 | 0.01 | 0.04 | 0.04 | 62 | 1013.9 |
| 20260506000200 | 74 | 102 | 3.5 | 7.8 | 0.01 | 0.04 | 0.04 | 62 | 1013.8 |
| 20260505235700 | 75 | 104 | 3.5 | 7.8 | 0.01 | 0.04 | 0.04 | 61 | 1013.8 |
| 20260505235200 | 75 | 107 | 3.5 | 7.8 | 0.01 | 0.04 | 0.04 | 60 | 1013.8 |
| 20260505234700 | 75 | 116 | 4.3 | 7.8 | 0.01 | 0.04 | 0.04 | 60 | 1013.8 |
| 20260505234205 | 75 | 111 | 4.3 | 8.7 | 0.01 | 0.04 | 0.04 | 59 | 1013.8 |
| 20260505233702 | 75 | 104 | 4.3 | 8.7 | 0.01 | 0.04 | 0.04 | 59 | 1013.7 |
| 20260505233201 | 76 | 147 | 4.3 | 8.7 | 0.01 | 0.04 | 0.04 | 58 | 1013.7 |
| 20260505232701 | 76 | 88 | 5.2 | 8.7 | 0.01 | 0.04 | 0.04 | 58 | 1013.7 |
| 20260505232201 | 76 | 119 | 4.3 | 8.7 | 0.01 | 0.04 | 0.04 | 57 | 1013.6 |
| 20260505231701 | 76 | 99 | 5.2 | 8.7 | 0.01 | 0.04 | 0.04 | 57 | 1013.7 |
| 20260505231201 | 76 | 128 | 5.2 | 9.6 | 0.00 | 0.04 | 0.04 | 56 | 1013.7 |
| 20260505230702 | 76 | 68 | 5.2 | 9.6 | 0.00 | 0.03 | 0.03 | 56 | 1013.6 |
| 20260505230201 | 77 | 126 | 5.2 | 9.6 | 0.00 | 0.03 | 0.03 | 55 | 1013.7 |
| 20260505225701 | 77 | 129 | 4.3 | 7.8 | 0.00 | 0.03 | 0.03 | 56 | 1013.7 |
| 20260505225202 | 77 | 82 | 3.5 | 7.0 | 0.00 | 0.03 | 0.03 | 56 | 1013.6 |
| 20260505224700 | 77 | 106 | 4.3 | 10.4 | 0.00 | 0.03 | 0.03 | 56 | 1013.6 |
| 20260505224201 | 77 | 16 | 5.2 | 10.4 | 0.00 | 0.03 | 0.03 | 56 | 1013.6 |
| 20260505223704 | 77 | 89 | 5.2 | 9.6 | 0.00 | 0.03 | 0.03 | 56 | 1013.6 |
| 20260505223201 | 77 | 97 | 5.2 | 9.6 | 0.01 | 0.03 | 0.03 | 56 | 1013.5 |
| 20260505222700 | 77 | 70 | 7.0 | 11.3 | 0.03 | 0.03 | 0.03 | 56 | 1013.5 |
| 20260505222202 | 78 | 98 | 7.0 | 11.3 | 0.03 | 0.03 | 0.03 | 55 | 1013.5 |
| 20260505221701 | 78 | 93 | 5.2 | 11.3 | 0.03 | 0.03 | 0.03 | 56 | 1013.4 |
| 20260505221202 | 78 | 115 | 6.1 | 13.0 | 0.03 | 0.03 | 0.03 | 56 | 1013.6 |
| 20260505220702 | 78 | 117 | 6.1 | 13.0 | 0.03 | 0.03 | 0.03 | 56 | 1013.6 |
| 20260505220202 | 78 | 138 | 5.2 | 10.4 | 0.03 | 0.03 | 0.03 | 56 | 1013.6 |
| 20260505214700 | 78 | 56 | 6.1 | 11.3 | 0.03 | 0.03 | 0.03 | 54 | 1013.4 |
| 20260505214201 | 78 | 120 | 6.1 | 11.3 | 0.03 | 0.03 | 0.03 | 54 | 1013.4 |
| 20260505213701 | 78 | 103 | 6.1 | 11.3 | 0.03 | 0.03 | 0.03 | 54 | 1013.5 |
| 20260505213201 | 78 | 85 | 6.1 | 11.3 | 0.02 | 0.02 | 0.02 | 54 | 1013.5 |
| 20260505212701 | 78 | 32 | 5.2 | 11.3 | 0.00 | 0.00 | 0.00 | 53 | 1013.4 |
| 20260505212201 | 78 | 72 | 6.1 | 12.2 | 0.00 | 0.00 | 0.00 | 54 | 1013.4 |